North Conway, NH

7:09 AM EDT on August 18, 2017 (GMT -0400)
North Conway

Weather History for KCWN - July, 2014

Change the Weather History Date:

Tuesday, July 22, 2014

  Actual Average (KIZG) Record (KIZG)
Temperature  
Mean Temperature 77 °F -  
Max Temperature 86 °F 78 °F 100 °F (2011)
Min Temperature 68 °F 53 °F 46 °F (1997)
Cooling Degree Days 12    
Growing Degree Days 27 (Base 50)    
Moisture  
Dew Point 41 °F    
Average Humidity 27    
Maximum Humidity 37    
Minimum Humidity 19    
Precipitation  
Precipitation 0.00 in - - ()
Sea Level Pressure  
Sea Level Pressure 30.10 in    
Wind  
Wind Speed 6 mph (SSW)    
Max Wind Speed 15 mph    
Max Gust Speed 24 mph    
Visibility 12 miles    
Events      
Averages and records for this station are not official NWS values.
T = Trace of Precipitation, MM = Missing Value Source: NWS Daily Summary

Daily Weather History Graph

Daily Weather History Graph

Search for Another Location

Airport or City:

Trip Planner

Search our weather history database for the weather conditions in past years. The results will help you decide how hot, cold, wet, or windy it might be!

Date:

Astronomy

Jul. 22, 2014 Rise Set
Actual Time 5:22 AM EDT 8:19 PM EDT
Civil Twilight 4:48 AM EDT 8:53 PM EDT
Nautical Twilight 4:04 AM EDT 9:36 PM EDT
Astronomical Twilight 3:12 AM EDT 10:28 PM EDT
Moon 1:54 AM EDT (7/22) 4:53 PM EDT (7/22)
Length of Visible Light 16h 05m
Length of Day
14h 57m
Waning Crescent, 16% of the Moon is Illuminated
Jul 22
Waning Crescent
Jul 26
New
Aug 3
First Quarter
Aug 10
Full
Aug 17
Last Quarter

Hourly Weather History & Observations

Time (EDT) Temp. Dew Point Humidity Pressure Visibility Wind Dir Wind Speed Gust Speed Precip Events Conditions
12:56 AM 73.4 °F 38.7 °F 28% 30.01 in 12.0 mi SW 4.6 mph - N/A   Clear
1:56 AM 75.9 °F 37.2 °F 25% 30.01 in 12.0 mi South 6.9 mph - N/A   Scattered Clouds
2:56 AM 76.6 °F 37.4 °F 24% 30.01 in 12.0 mi Variable 4.6 mph - N/A   Scattered Clouds
3:56 AM 71.1 °F 39.4 °F 32% 30.02 in 12.0 mi Variable 2.3 mph - N/A   Partly Cloudy
4:21 AM 73.4 °F 42.8 °F 33% 30.33 in 12.0 mi South 11.5 mph 24.2 mph N/A   Clear
4:56 AM 68.4 °F 39.9 °F 35% 30.04 in 12.0 mi Variable 2.3 mph - N/A   Clear
5:56 AM 68.4 °F 41.0 °F 37% 30.04 in 12.0 mi WNW 9.2 mph - N/A   Clear
6:56 AM 70.0 °F 39.0 °F 32% 30.04 in 12.0 mi ESE 3.5 mph - N/A   Clear
7:56 AM 71.8 °F 38.3 °F 30% 30.04 in 12.0 mi WSW 3.5 mph - N/A   Clear
8:56 AM 78.1 °F 39.4 °F 25% 30.05 in 12.0 mi NE 2.3 mph - N/A   Clear
9:56 AM 79.2 °F 39.9 °F 25% 30.06 in 12.0 mi North 3.5 mph - N/A   Clear
10:56 AM 82.2 °F 38.1 °F 21% 30.07 in 12.0 mi North 11.5 mph - N/A   Clear
11:56 AM 82.0 °F 40.3 °F 23% 30.09 in 12.0 mi North 11.5 mph 18.4 mph N/A   Clear
1:56 PM 84.2 °F 38.1 °F 19% 30.10 in 12.0 mi Variable 3.5 mph - N/A   Clear
2:22 PM 86.0 °F 42.8 °F 22% 30.41 in 12.0 mi NE 15.0 mph 20.7 mph N/A   Clear
2:56 PM 86.0 °F 44.1 °F 23% 30.10 in 12.0 mi ESE 9.2 mph 23.0 mph N/A   Partly Cloudy
3:56 PM 85.6 °F 48.0 °F 27% 30.12 in 12.0 mi ESE 12.7 mph 24.2 mph N/A   Partly Cloudy
4:56 PM 80.8 °F 47.3 °F 31% 30.14 in 12.0 mi South 4.6 mph - N/A   Mostly Cloudy
5:56 PM 81.3 °F 42.6 °F 25% 30.13 in 12.0 mi NW 3.5 mph - N/A   Mostly Cloudy
6:56 PM 82.8 °F 42.3 °F 24% 30.11 in 12.0 mi Variable 2.3 mph - N/A   Scattered Clouds
7:56 PM 81.5 °F 43.9 °F 26% 30.11 in 12.0 mi SSW 5.8 mph - N/A   Clear
8:56 PM 80.2 °F 43.0 °F 27% 30.10 in 12.0 mi South 3.5 mph - N/A   Partly Cloudy
9:56 PM 78.6 °F 43.3 °F 29% 30.11 in 12.0 mi SW 4.6 mph - N/A   Clear
10:56 PM 78.4 °F 44.2 °F 30% 30.11 in 12.0 mi SSW 9.2 mph - N/A   Clear
11:56 PM 78.1 °F 45.5 °F 32% 30.13 in 12.0 mi Variable 5.8 mph 15.0 mph N/A   Clear